X  CloseRain starting tonight.
Conditions Temp Feels Precipitation Windspeed Direction UV index Pressure
07:00 cloudy Overcast 1° -4° - 17-38 km/h SW SW - 1011,1
08:00 cloudy Overcast 1° -4° - 19-41 km/h SW SW - 1010,8
09:00 cloudy Overcast 1° -4° - 21-44 km/h SSW SSW - 1010,8
10:00 cloudy Overcast 2° -3° 0.01 mm 3% 23-44 km/h SSW SSW - 1010,2
11:00 cloudy Overcast 2° -3° 0.01 mm 9% 26-45 km/h SSW SSW - 1009,8
12:00 cloudy Overcast 3° -3° 0.01 mm 9% 28-47 km/h SSW SSW
1
1008,9
13:00 cloudy Overcast 3° -3° 0.01 mm 8% 30-51 km/h SSW SSW
1
1008,0
14:00 cloudy Overcast 2° -3° 0.11 mm 21% 31-55 km/h SSW SSW - 1007,5
15:00 rain Possible Drizzle 2° -3° 0.2 mm 30% 31-57 km/h SSW SSW - 1006,6
16:00 cloudy Overcast 3° -3° 0.1 mm 19% 31-56 km/h SSW SSW - 1005,9
17:00 cloudy Overcast 3° -2° 0.05 mm 12% 30-54 km/h SSW SSW - 1005,2
18:00 cloudy Overcast 3° -2° 0.06 mm 12% 30-53 km/h SSW SSW - 1004,6
19:00 cloudy Overcast 3° -2° 0.07 mm 15% 29-54 km/h SSW SSW - 1004,3
20:00 cloudy Overcast 4° -2° 0.06 mm 14% 29-53 km/h SSW SSW - 1003,8
21:00 cloudy Overcast 4° -1° 0.09 mm 17% 27-50 km/h SSW SSW - 1003,2
22:00 rain Possible Drizzle 4° -1° 0.16 mm 25% 24-48 km/h SSW SSW - 1002,4
23:00 rain Possible Light Rain 4° -1° 0.24 mm 39% 21-43 km/h SSW SSW - 1001,8
00:00 rain Possible Light Rain 4° 0° 0.32 mm 53% 18-39 km/h SSW SSW - 1000,8
01:00 rain Possible Light Rain 4° 1° 0.42 mm 62% 18-41 km/h SSW SSW - 1000,9
02:00 rain Light Rain 4° 1° 0.9 mm 76% 16-38 km/h SSW SSW - 999,9
03:00 rain Rain 4° 1° 1.14 mm 78% 13-31 km/h SSW SSW - 999,0
04:00 rain Rain 4° 1.1 mm 76% 12-28 km/h SSW SSW - 997,8
05:00 rain Rain 4° 1.46 mm 75% 11-27 km/h South South - 996,9
06:00 rain Rain 4° 0.94 mm 68% 9-22 km/h South South - 996,3
07:00 rain Possible Light Rain 5° 0.54 mm 59% 8-18 km/h South South - 994,6
08:00 cloudy Overcast 5° 0.07 mm 18% 9-17 km/h West West - 995,2
09:00 rain Possible Drizzle 4° 0.12 mm 32% 11-24 km/h West West - 996,4
10:00 rain Possible Drizzle 5° 0.16 mm 38% 13-29 km/h West West - 997,1
11:00 rain Possible Drizzle 6° 3° 0.16 mm 35% 15-31 km/h West West - 997,5
12:00 rain Possible Drizzle 7° 4° 0.13 mm 28% 16-28 km/h WSW WSW
1
997,4
13:00 rain Possible Drizzle 8° 5° 0.18 mm 36% 18-27 km/h WSW WSW
1
997,2
14:00 rain Possible Drizzle 8° 5° 0.14 mm 32% 21-33 km/h South South - 997,3
15:00 rain Possible Light Rain 7° 3° 0.52 mm 62% 27-36 km/h NW NW - 997,9
16:00 rain Possible Light Rain 6° 2° 0.4 mm 61% 27-43 km/h WNW WNW - 998,7
17:00 rain Possible Light Rain 6° 2° 0.36 mm 57% 25-47 km/h NNW NNW - 999,6
18:00 rain Possible Light Rain 6° 1° 0.29 mm 49% 27-47 km/h SW SW - 1000,6
19:00 rain Possible Light Rain 5° 1° 0.37 mm 51% 24-41 km/h West West - 1000,5
20:00 rain Possible Light Rain 5° 1° 0.26 mm 43% 23-39 km/h West West - 1001,0
21:00 rain Possible Light Rain 5° 0° 0.34 mm 49% 22-39 km/h West West - 1001,4
22:00 rain Possible Light Rain 4° -0° 0.4 mm 54% 21-41 km/h WSW WSW - 1001,8
23:00 rain Possible Light Rain 4° -1° 0.43 mm 54% 20-41 km/h WSW WSW - 1002,1
00:00 rain Possible Light Rain 3° -1° 0.43 mm 53% 19-40 km/h WSW WSW - 1002,4
01:00 partly-cloudy-night Mostly Cloudy 3° -1° 0.02 mm 11% 19-39 km/h SW SW - 1001,7
02:00 partly-cloudy-night Partly Cloudy 3° -1° 0.01 mm 4% 18-37 km/h SW SW - 1001,8
03:00 partly-cloudy-night Partly Cloudy 3° -2° 0.01 mm 7% 17-35 km/h SW SW - 1001,7
04:00 partly-cloudy-night Partly Cloudy 2° -2° 0.01 mm 7% 17-35 km/h SW SW - 1001,6
05:00 partly-cloudy-night Partly Cloudy 2° -2° 0.02 mm 7% 16-33 km/h SW SW - 1001,5
06:00 partly-cloudy-night Partly Cloudy 1° -3° 0.04 mm 10% 15-31 km/h SW SW - 1001,5
07:00 rain Possible Drizzle 2° -2° 0.17 mm 28% 15-30 km/h WSW WSW - 1002,2
Powered by:   darksky logo